DMSP 5D-2 F13 DEB, 40436

Orbit data source: Space-Track

DMSP 5D-2 F13 DEB, 40436 is space debris in SSO originally from a launch on Fri, 24 Mar 1995 UTC launched from the Air Force Western Test Range (AFWTR). Debris objects in space refer to the collection of defunct objects orbiting the Earth. Examples of debris include non-operational satellites, rocket bodies, and fragments generated from explosions, collisions, or faulty payload assembly.

Loading next visibility...
Identifier
40436, 1995-015AN
Orbit
SSO
Country
Flag of USUS
Related business
Manufacturer
Unknown
Mission
Spacecraft
Bus & Motor
Unknown
Mass
Unknown
Launch date (UTC)
1995-03-24 (31 years ago)
Launch vehicle
Unknown
Launch site
Air Force Western Test Range (AFWTR)
Object type
Payload
Rocket body
Debris
Shape & HBR
Unknown shape, 0.1 m
Radar Cross Section
Small (<0.1 m²)

Expand to show TLE details & history
Last TLE update: 21 hours ago

TLE from 21 hours ago
0 DMSP 5D-2 F13 DEB
1 40436U 95015AN  25287.73683044  .00000570  00000-0  56112-3 0  9996
2 40436  98.8792  19.7554 0230122  57.1708 305.1373 13.71345138530636
Epoch: 2025-10-14T17:41Z
TLE epoch observation values (Epoch: 2025-10-14T17:41:02.150Z)
Latitude
0.00004°
Longitude
90.97546°
Altitude
902.584 km
Speed
7.448 km/s
True Right ascension
01h 19m 01s
True Declination
0° 00' 00"
Sunlit
Object was in full shadow at epoch
Visualization orbit readout
Latitude
Unknown
Longitude
Unknown
Altitude
Unknown
Speed
Unknown
Apparent Right ascension
Unknown
Apparent Declination
Unknown
Sunlit
N/A
Visualization observer readout
Local Sidereal Time
09:06:19
Azimuth
Unknown
Elevation
Unknown
Doppler factor
Unknown
Orbital elements
Apogee altitude
1,161.578 km
Perigee altitude
822.373 km
Semi-major axis
7,370.113 km
Eccentricity
0.02301
Inclination
98.8792°
RAAN
19.7554°
Arg. of periapsis
57.1708°
True anomaly
302.94508°
Mean anomaly
305.1373°
Eccentric anomaly
304.04479°
Mean motion
3.4303 °/min
Orbital period
104.95 mins
BSTAR
0.00056112

Documentation

Showing up to 5 results
|